When you browse on this site, cookies collect data to enhance your experience and personalize the content and advertising you see.
Visit our Privacy Policy to learn more. By continuing to use the site, you agree to this use of cookies and data.
  • Em Portugal
  • Lista de países
  • Para 7 dias
  • Temperatura da água
  • Mapas de satélite
  • Mapa do tempo
  • Widgets de tempo
  • user-avatar
    Iniciar Sessão

    Previsão horária em Soelden

    Hoje, 21 Julho, Domingo

    Tempo Temperatura Precipitação Vento Pressão Humidade
    00:00 +8°C° 0.2 mm 1 m/s 587 mmHg 91%
    01:00 +7°C° 0 mm 0 m/s 588 mmHg 88%
    02:00 +7°C° 0.1 mm 0 m/s 587 mmHg 89%
    03:00 +7°C° 0.1 mm 0 m/s 587 mmHg 89%
    04:00 +7°C° 0.1 mm 0 m/s 587 mmHg 90%
    05:00 +8°C° 0 mm 0 m/s 587 mmHg 88%
    06:00 +9°C° 0 mm 0 m/s 588 mmHg 87%
    07:00 +11°C° 0 mm 0 m/s 590 mmHg 87%
    08:00 +12°C° 0.6 mm 0 m/s 590 mmHg 83%
    09:00 +13°C° 0.6 mm 0 m/s 591 mmHg 79%
    10:00 +15°C° 0.6 mm 0 m/s 592 mmHg 75%
    11:00 +16°C° 0.8 mm 1 m/s 592 mmHg 73%
    12:00 +18°C° 0.8 mm 1 m/s 592 mmHg 70%
    13:00 +19°C° 0.8 mm 1 m/s 593 mmHg 67%
    14:00 +19°C° 0.8 mm 1 m/s 593 mmHg 66%
    15:00 +19°C° 0.8 mm 1 m/s 593 mmHg 65%
    16:00 +19°C° 0.8 mm 1 m/s 593 mmHg 64%
    17:00 +16°C° 0.4 mm 1 m/s 592 mmHg 70%
    18:00 +14°C° 0.4 mm 0 m/s 591 mmHg 77%
    19:00 +13°C° 0.4 mm 0 m/s 591 mmHg 83%
    20:00 +13°C° 0.1 mm 1 m/s 591 mmHg 84%
    21:00 +11°C° 0.1 mm 1 m/s 590 mmHg 86%
    22:00 +9°C° 0.1 mm 1 m/s 590 mmHg 88%
    23:00 +9°C° 0 mm 1 m/s 590 mmHg 87%

    Amanhã, 22 Julho, Segunda-feira

    Tempo Temperatura Precipitação Vento Pressão Humidade
    00:00 +8°C° 0 mm 1 m/s 590 mmHg 87%
    01:00 +8°C° 0 mm 1 m/s 589 mmHg 87%
    02:00 +8°C° 0 mm 1 m/s 589 mmHg 86%
    03:00 +8°C° 0 mm 1 m/s 589 mmHg 85%
    04:00 +8°C° 0 mm 1 m/s 589 mmHg 84%
    05:00 +9°C° 0 mm 1 m/s 590 mmHg 80%
    06:00 +11°C° 0 mm 1 m/s 591 mmHg 76%
    07:00 +12°C° 0 mm 1 m/s 591 mmHg 73%
    08:00 +14°C° 0 mm 1 m/s 592 mmHg 64%
    09:00 +16°C° 0 mm 1 m/s 593 mmHg 56%
    10:00 +19°C° 0 mm 1 m/s 594 mmHg 48%
    11:00 +20°C° 0 mm 1 m/s 594 mmHg 44%
    12:00 +21°C° 0 mm 1 m/s 595 mmHg 41%
    13:00 +22°C° 0 mm 1 m/s 595 mmHg 38%
    14:00 +22°C° 0 mm 1 m/s 595 mmHg 39%
    15:00 +22°C° 0 mm 1 m/s 595 mmHg 40%
    16:00 +21°C° 0 mm 1 m/s 594 mmHg 41%
    17:00 +20°C° 0 mm 1 m/s 594 mmHg 53%
    18:00 +18°C° 0 mm 1 m/s 593 mmHg 65%
    19:00 +15°C° 0 mm 1 m/s 592 mmHg 77%
    20:00 +14°C° 0 mm 1 m/s 592 mmHg 80%
    21:00 +13°C° 0 mm 1 m/s 591 mmHg 82%
    22:00 +12°C° 0 mm 1 m/s 591 mmHg 85%
    23:00 +11°C° 0 mm 1 m/s 591 mmHg 85%

    Depois de amanhã, 23 Julho, Terça-feira

    Tempo Temperatura Precipitação Vento Pressão Humidade
    00:00 +11°C° 0 mm 1 m/s 590 mmHg 85%
    01:00 +10°C° 0 mm 1 m/s 590 mmHg 86%
    02:00 +10°C° 0 mm 1 m/s 590 mmHg 85%
    03:00 +9°C° 0 mm 1 m/s 589 mmHg 85%
    04:00 +9°C° 0 mm 1 m/s 589 mmHg 85%
    05:00 +11°C° 0 mm 1 m/s 590 mmHg 79%
    06:00 +11°C° 0 mm 0 m/s 590 mmHg 74%
    07:00 +13°C° 0 mm 0 m/s 591 mmHg 68%
    08:00 +15°C° 0 mm 0 m/s 592 mmHg 62%
    09:00 +19°C° 0 mm 1 m/s 593 mmHg 55%
    10:00 +20°C° 0 mm 1 m/s 594 mmHg 49%
    11:00 +21°C° 0 mm 1 m/s 594 mmHg 47%
    12:00 +22°C° 0 mm 1 m/s 594 mmHg 46%
    13:00 +23°C° 0 mm 2 m/s 594 mmHg 44%
    14:00 +21°C° 0.2 mm 2 m/s 594 mmHg 47%
    15:00 +21°C° 0.2 mm 2 m/s 593 mmHg 50%
    16:00 +21°C° 0.2 mm 2 m/s 593 mmHg 54%
    17:00 +19°C° 0.5 mm 2 m/s 592 mmHg 64%
    18:00 +18°C° 0.5 mm 1 m/s 591 mmHg 75%
    19:00 +16°C° 0.5 mm 1 m/s 591 mmHg 86%
    20:00 +14°C° 0.2 mm 1 m/s 590 mmHg 89%
    21:00 +12°C° 0.2 mm 0 m/s 590 mmHg 91%
    22:00 +11°C° 0.2 mm 0 m/s 589 mmHg 94%
    23:00 +10°C° 0 mm 0 m/s 589 mmHg 94%

    24 Julho, Quarta-feira

    Tempo Temperatura Precipitação Vento Pressão Humidade
    00:00 +10°C° 0 mm 0 m/s 589 mmHg 94%
    01:00 +10°C° 0 mm 0 m/s 588 mmHg 94%
    02:00 +9°C° 0 mm 0 m/s 588 mmHg 94%
    03:00 +9°C° 0 mm 0 m/s 588 mmHg 94%
    04:00 +9°C° 0 mm 0 m/s 587 mmHg 93%
    05:00 +10°C° 0 mm 0 m/s 588 mmHg 90%
    06:00 +12°C° 0 mm 0 m/s 589 mmHg 87%
    07:00 +13°C° 0 mm 0 m/s 590 mmHg 83%
    08:00 +15°C° 0 mm 0 m/s 591 mmHg 76%
    09:00 +19°C° 0 mm 1 m/s 591 mmHg 69%
    10:00 +21°C° 0 mm 1 m/s 592 mmHg 61%
    11:00 +21°C° 0.1 mm 1 m/s 592 mmHg 59%
    12:00 +22°C° 0.1 mm 1 m/s 592 mmHg 56%
    13:00 +23°C° 0.1 mm 2 m/s 593 mmHg 54%
    14:00 +21°C° 0.7 mm 2 m/s 592 mmHg 58%
    15:00 +21°C° 0.7 mm 2 m/s 592 mmHg 61%
    16:00 +21°C° 0.7 mm 2 m/s 591 mmHg 65%
    17:00 +20°C° 1.5 mm 1 m/s 591 mmHg 73%
    18:00 +19°C° 1.5 mm 1 m/s 590 mmHg 80%
    19:00 +16°C° 1.5 mm 1 m/s 590 mmHg 88%
    20:00 +14°C° 0.9 mm 0 m/s 589 mmHg 89%
    21:00 +13°C° 0.9 mm 0 m/s 589 mmHg 90%
    22:00 +12°C° 0.9 mm 0 m/s 589 mmHg 91%
    23:00 +12°C° 0.2 mm 0 m/s 589 mmHg 92%

    25 Julho, Quinta-feira

    Tempo Temperatura Precipitação Vento Pressão Humidade
    00:00 +12°C° 0.2 mm 0 m/s 589 mmHg 92%
    01:00 +11°C° 0.2 mm 0 m/s 588 mmHg 93%
    02:00 +11°C° 0 mm 0 m/s 588 mmHg 94%
    03:00 +10°C° 0 mm 0 m/s 588 mmHg 94%
    04:00 +10°C° 0 mm 0 m/s 587 mmHg 94%
    05:00 +11°C° 0 mm 0 m/s 588 mmHg 92%
    06:00 +12°C° 0 mm 0 m/s 589 mmHg 90%
    07:00 +13°C° 0 mm 0 m/s 589 mmHg 88%
    08:00 +16°C° 0.1 mm 1 m/s 590 mmHg 81%
    09:00 +19°C° 0.1 mm 1 m/s 590 mmHg 74%
    10:00 +20°C° 0.1 mm 1 m/s 591 mmHg 67%
    11:00 +20°C° 0.6 mm 2 m/s 591 mmHg 64%
    12:00 +21°C° 0.6 mm 2 m/s 591 mmHg 62%
    13:00 +21°C° 0.6 mm 2 m/s 591 mmHg 59%
    14:00 +21°C° 1.4 mm 2 m/s 591 mmHg 61%
    15:00 +21°C° 1.4 mm 2 m/s 590 mmHg 63%
    16:00 +20°C° 1.4 mm 2 m/s 590 mmHg 65%
    17:00 +20°C° 1.6 mm 1 m/s 590 mmHg 73%
    18:00 +18°C° 1.6 mm 1 m/s 589 mmHg 80%
    19:00 +16°C° 1.6 mm 1 m/s 588 mmHg 88%
    20:00 +15°C° 1.2 mm 1 m/s 588 mmHg 90%
    21:00 +13°C° 1.2 mm 0 m/s 588 mmHg 91%
    22:00 +12°C° 1.2 mm 0 m/s 588 mmHg 93%
    23:00 +12°C° 0.5 mm 0 m/s 587 mmHg 93%

    26 Julho, Sexta-feira

    Tempo Temperatura Precipitação Vento Pressão Humidade
    00:00 +11°C° 0.5 mm 0 m/s 587 mmHg 94%
    01:00 +11°C° 0.5 mm 0 m/s 587 mmHg 95%
    02:00 +11°C° 0.4 mm 0 m/s 587 mmHg 95%
    03:00 +10°C° 0.4 mm 0 m/s 586 mmHg 95%
    04:00 +10°C° 0.4 mm 0 m/s 586 mmHg 95%
    05:00 +11°C° 0.1 mm 0 m/s 586 mmHg 93%
    06:00 +12°C° 0.1 mm 0 m/s 587 mmHg 91%
    07:00 +13°C° 0.1 mm 0 m/s 587 mmHg 89%
    08:00 +15°C° 0.3 mm 1 m/s 588 mmHg 83%
    09:00 +18°C° 0.3 mm 1 m/s 588 mmHg 77%
    10:00 +19°C° 0.3 mm 1 m/s 589 mmHg 71%
    11:00 +20°C° 0.4 mm 1 m/s 589 mmHg 69%
    12:00 +20°C° 0.4 mm 1 m/s 589 mmHg 67%
    13:00 +20°C° 0.4 mm 2 m/s 589 mmHg 66%
    14:00 +20°C° 0.8 mm 2 m/s 589 mmHg 68%
    15:00 +19°C° 0.8 mm 2 m/s 589 mmHg 71%
    16:00 +19°C° 0.8 mm 2 m/s 589 mmHg 73%
    17:00 +19°C° 1.4 mm 1 m/s 588 mmHg 78%
    18:00 +16°C° 1.4 mm 1 m/s 588 mmHg 84%
    19:00 +15°C° 1.4 mm 1 m/s 587 mmHg 89%
    20:00 +14°C° 1.1 mm 1 m/s 587 mmHg 90%
    21:00 +12°C° 1.1 mm 1 m/s 587 mmHg 90%
    22:00 +11°C° 1.1 mm 1 m/s 586 mmHg 91%
    23:00 +11°C° 0.2 mm 1 m/s 586 mmHg 92%
    Mostrar mais